ATLAS AGENA B DEB, 631

Orbit data source: Space-Track

ATLAS AGENA B DEB, 631 is space debris in LEO originally from a launch on Fri, 19 Jul 1963 UTC launched from the Air Force Western Test Range (AFWTR). Debris objects in space refer to the collection of defunct objects orbiting the Earth. Examples of debris include non-operational satellites, rocket bodies, and fragments generated from explosions, collisions, or faulty payload assembly.

Loading next visibility...
ATLAS AGENA B DEB details
Identifier
631, 1963-030E
Orbit
LEO
Last TLE update23 hours ago
Origin
Flag of USUSAF SSD (US)
ManufacturerUnknown
MissionSpacecraft
Bus & MotorUnknown
Mass~10 kg wet, ~10 kg dry
Launch date (UTC)
1963-07-19 (62 years ago)
Launch vehicleUnknown
Launch site
Air Force Western Test Range (AFWTR)
Object type
Payload
Rocket body
Debris
Shape & HBRBox, 1.5 m
Radar Cross Section1.575 m², Medium (>0.1 m² and < 1m²)

Expand to show TLE details & history

TLE from 23 hours ago
0 ATLAS AGENA B DEB
1 00631U 63030E   25024.02398489  .00000002  00000-0  00000-0 0  9990
2 00631  88.3906 245.3278 0171329 229.0330 129.5583  8.55878500922078
Epoch: 2025-01-24T00:34Z
Definitive object data (Epoch: 2025-01-24T00:34:32.294Z)
Latitude-0.00006°
Longitude113.10014°
Altitude3,831.422 km
Speed6.214 km/s
True Right ascension16h 21m 18s
True Declination0° 00' 00"
Sunlit
Object was in daylight at TLE epoch
Visualization TLE readout
Latitude42.56916°
Longitude114.52011°
Altitude3,895.378 km
Speed6.179 km/s
Apparent Right ascension14h 59m 34s
Apparent Declination14° 30' 48"
Sunlit
Object is in daylight
Visualization observer readout
Local Sidereal Time00:39:03
Azimuth321.495° NNW
Elevation-26.516°
Doppler factor1
Orbital elements
Apogee altitude3,888.103 km
Perigee altitude3,542.248 km
Semi-major axis10,093.312 km
Eccentricity0.0171329
Inclination88.3906°
RAAN245.3278°
Arg. of periapsis229.033°
True anomaly131.0514°
Mean anomaly129.5583°
Eccentric anomaly130.30689°
Mean motion2.14039 °/min
BSTARUnknown
Orbital period168.19 mins
Loading maneuver chart data...
Loading historical data...
Loading historical data...
Loading historical data...
Loading historical data...
Loading historical data...
Loading historical data...
Loading historical data...

ATLAS AGENA B DEB Visibility forecast

Observer location: undefined°, undefined

Span
Click to sort rows by Start time (UTC) header in descending order
Start Az.
Max El. time (UTC)
Max El. Az.
Max El.
End time (UTC)
End Az.
27 mins2025-01-24 23:50:24.601Z12.884° NNE2025-01-25 00:04:24.601Z61.448° ENE21.288°2025-01-25 00:17:24.601Z107.847° ESE
36 mins2025-01-25 02:38:24.601Z359.543° N2025-01-25 02:56:24.601Z133.769° SE44.997°2025-01-25 03:14:24.601Z184.623° SSW
24 mins2025-01-25 05:28:24.601Z343.322° N2025-01-25 05:40:24.601Z301.045° NW22.538°2025-01-25 05:52:24.601Z258.458° W
33 mins2025-01-25 13:07:24.601Z131.357° SE2025-01-25 13:23:24.601Z70.992° E34.648°2025-01-25 13:40:24.601Z8.287° NNE
37 mins2025-01-25 15:52:24.601Z201.02° SSW2025-01-25 16:10:24.601Z279.321° WNW40.648°2025-01-25 16:29:24.601Z356.545° N
8 mins2025-01-25 19:03:24.601Z304.972° NW2025-01-25 19:07:24.601Z317.457° NNW11.029°2025-01-25 19:11:24.601Z329.895° NNW
|